GW6472 Weather Reports


time (UTC)temp
F
wind
direction
speed
knots
gust
knots
rain 1hr
in
rain 24hr
in
rain mn
in
humidity
%
barometer
mb
20260509000737 59 223 0.0 1.7 0.00 0.00 0.00 59
20260509000227 59 203 0.0 1.7 0.00 0.00 0.00 59
20260508235715 59 226 0.0 1.7 0.00 0.00 0.00 58
20260508235201 60 257 0.9 1.7 0.00 0.00 0.00 57
20260508234700 60 255 0.0 2.6 0.00 0.00 0.00 57
20260508234137 60 219 0.0 2.6 0.00 0.00 0.00 58
20260508233637 60 188 1.7 2.6 0.00 0.00 0.00 58
20260508233140 60 185 1.7 2.6 0.00 0.00 0.00 58
20260508232625 60 300 0.9 2.6 0.00 0.00 0.00 57
20260508232125 60 214 2.6 2.6 0.00 0.00 0.00 56
20260508231625 60 90 0.9 3.5 0.00 0.00 0.00 56
20260508231115 60 233 0.0 3.5 0.00 0.00 0.00 57
20260508230840 61 199 1.7 2.6 0.00 0.00 0.00 55
20260508230113 61 281 0.9 2.6 0.00 0.00 0.00 56
20260508225601 61 53 2.6 2.6 0.00 0.00 0.00 56
20260508225323 62 193 1.7 3.5 0.00 0.00 0.00 54
20260508224601 62 317 0.9 7.0 0.00 0.00 0.00 53
20260508224052 62 12 0.9 7.0 0.00 0.00 0.00 53
20260508223549 63 215 1.7 5.2 0.00 0.00 0.00 52
20260508223049 63 30 0.9 5.2 0.00 0.00 0.00 52
20260508222537 63 116 0.9 6.1 0.00 0.00 0.00 52
20260508222039 63 281 3.5 7.8 0.00 0.00 0.00 51
20260508221537 62 114 0.9 7.8 0.00 0.00 0.00 53
20260508221032 62 0 0.0 3.5 0.00 0.00 0.00 50
20260508221026 62 97 3.5 3.5 0.00 0.00 0.00 52
20260508220248 62 133 0.9 5.2 0.00 0.00 0.00 52
20260508215513 62 136 1.7 5.2 0.00 0.00 0.00 50
20260508215013 62 100 0.9 9.6 0.00 0.00 0.00 51
20260508214732 62 108 2.6 9.6 0.00 0.00 0.00 49
20260508214000 62 112 0.0 5.2 0.00 0.00 0.00 51
20260508213501 61 93 1.7 3.5 0.00 0.00 0.00 51
20260508213003 60 98 0.9 3.5 0.00 0.00 0.00 52
20260508212448 60 117 0.9 6.1 0.00 0.00 0.00 53
20260508211948 60 137 1.7 7.0 0.00 0.00 0.00 54
20260508211448 59 113 2.6 7.0 0.00 0.00 0.00 53
20260508210939 60 119 4.3 8.7 0.00 0.00 0.00 52
20260508210437 60 121 2.6 8.7 0.00 0.00 0.00 53
20260508205936 59 127 2.6 7.8 0.00 0.00 0.00 54
20260508205425 59 123 3.5 7.8 0.00 0.00 0.00 54
20260508205157 60 124 4.3 8.7 0.00 0.00 0.00 53
20260508204425 59 139 2.6 8.7 0.00 0.00 0.00 53
20260508203913 60 103 3.5 8.7 0.00 0.00 0.00 51
20260508203412 60 125 2.6 7.8 0.00 0.00 0.00 49
20260508202916 60 99 1.7 7.0 0.00 0.00 0.00 46
20260508202401 60 112 0.9 7.0 0.00 0.00 0.00 46
20260508201900 62 110 2.6 7.0 0.00 0.00 0.00 47
20260508201629 64 127 0.9 3.5 0.00 0.00 0.00 40
20260508200852 63 293 0.9 3.5 0.00 0.00 0.00 34
20260508200349 63 292 2.6 7.0 0.00 0.00 0.00 33
20260508195848 64 289 1.7 7.0 0.00 0.00 0.00 33
20260508195340 63 294 2.6 7.0 0.00 0.00 0.00 32
20260508195329 65 268 3.5 5.2 0.00 0.00 0.00 31
20260508194337 64 308 2.6 6.1 0.00 0.00 0.00 29
20260508194046 64 54 1.7 7.8 0.00 0.00 0.00 29
20260508193327 64 274 3.5 7.8 0.00 0.00 0.00 30
20260508192824 64 286 0.9 7.8 0.00 0.00 0.00 33
20260508192313 63 265 1.7 7.0 0.00 0.00 0.00 30
20260508191813 63 126 0.0 7.0 0.00 0.00 0.00 31
20260508191315 64 247 4.3 7.0 0.00 0.00 0.00 31
20260508190800 65 311 3.5 7.0 0.00 0.00 0.00 29
20260508190300 65 50 0.9 3.5 0.00 0.00 0.00 30
20260508185800 64 312 1.7 6.1 0.00 0.00 0.00 28
20260508185252 63 265 3.5 6.1 0.00 0.00 0.00 32
20260508184749 63 133 0.9 7.0 0.00 0.00 0.00 33
20260508184249 62 278 0.0 7.0 0.00 0.00 0.00 36
20260508184231 62 318 2.6 7.0 0.00 0.00 0.00 32
20260508183504 62 254 1.7 7.0 0.00 0.00 0.00 34
20260508182737 61 97 3.5 5.2 0.00 0.00 0.00 36
20260508182224 61 99 1.7 5.2 0.00 0.00 0.00 36
20260508181724 63 272 1.7 5.2 0.00 0.00 0.00 35
20260508181227 63 39 1.7 3.5 0.00 0.00 0.00 30
20260508180712 62 19 0.0 6.1 0.00 0.00 0.00 35
20260508180213 63 20 0.9 6.1 0.00 0.00 0.00 31
20260508175713 62 38 1.7 2.6 0.00 0.00 0.00 32
20260508175201 64 322 0.9 2.6 0.00 0.00 0.00 32
20260508174703 62 74 0.9 6.1 0.00 0.00 0.00 36
20260508174201 62 23 0.9 6.1 0.00 0.00 0.00 31
20260508174132 61 329 3.5 11.3 0.00 0.00 0.00 35
20260508173149 61 1 1.7 11.3 0.00 0.00 0.00 36
20260508172652 62 204 1.7 5.2 0.00 0.00 0.00 31
20260508172149 62 275 1.7 2.6 0.00 0.00 0.00 31
20260508171651 62 295 1.7 5.2 0.00 0.00 0.00 31
20260508171148 62 232 1.7 8.7 0.00 0.00 0.00 30
20260508170649 60 341 1.7 8.7 0.00 0.00 0.00 32
20260508170137 61 5 0.9 6.1 0.00 0.00 0.00 34
20260508165637 62 236 1.7 2.6 0.00 0.00 0.00 37
20260508165137 61 204 1.7 7.0 0.00 0.00 0.00 34
20260508164627 58 321 1.7 8.7 0.00 0.00 0.00 36
20260508164125 60 319 0.9 8.7 0.00 0.00 0.00 36
20260508163625 60 298 0.9 7.8 0.00 0.00 0.00 35
20260508163113 60 241 2.6 8.7 0.00 0.00 0.00 36
20260508162613 59 298 1.7 8.7 0.00 0.00 0.00 33
20260508162115 59 256 0.9 7.8 0.00 0.00 0.00 35
20260508161609 59 356 3.5 7.8 0.00 0.00 0.00 34
20260508161101 60 238 1.7 7.0 0.00 0.00 0.00 34
20260508160600 60 88 1.7 7.0 0.00 0.00 0.00 37
20260508160549 59 292 4.3 5.2 0.00 0.00 0.00 40
20260508155549 59 223 0.9 5.2 0.00 0.00 0.00 40
20260508155051 59 11 0.0 7.0 0.00 0.00 0.00 47
20260508154549 58 252 0.0 7.0 0.00 0.00 0.00 43
20260508154049 58 260 1.7 5.2 0.00 0.00 0.00 44
20260508153551 57 281 1.7 5.2 0.00 0.00 0.00 42
20260508153051 58 246 0.9 5.2 0.00 0.00 0.00 42
20260508152543 58 250 1.7 5.2 0.00 0.00 0.00 42
20260508152036 57 206 1.7 5.2 0.00 0.00 0.00 45
20260508151537 57 284 1.7 3.5 0.00 0.00 0.00 41
20260508151031 58 262 0.9 2.6 0.00 0.00 0.00 45
20260508150531 56 102 1.7 5.2 0.00 0.00 0.00 42
20260508150025 56 72 0.9 5.2 0.00 0.00 0.00 47
20260508145518 57 191 0.9 3.5 0.00 0.00 0.00 46
20260508145013 57 170 0.9 2.6 0.00 0.00 0.00 48
20260508144515 58 183 0.0 1.7 0.00 0.00 0.00 45
20260508144006 57 78 0.0 1.7 0.00 0.00 0.00 43
20260508143502 56 150 0.0 1.7 0.00 0.00 0.00 47
20260508143458 55 29 0.9 1.7 0.00 0.00 0.00 47
20260508142455 56 304 0.9 2.6 0.00 0.00 0.00 50
20260508141949 56 124 0.9 2.6 0.00 0.00 0.00 49
20260508141449 55 293 1.7 2.6 0.00 0.00 0.00 52
20260508140945 54 123 0.9 2.6 0.00 0.00 0.00 54
20260508140437 55 89 1.7 3.5 0.00 0.00 0.00 52
20260508135918 54 190 0.9 3.5 0.00 0.00 0.00 55
20260508135413 53 266 1.7 2.6 0.00 0.00 0.00 55
20260508134915 53 260 0.9 2.6 0.00 0.00 0.00 56
20260508134406 53 286 0.9 2.6 0.00 0.00 0.00 57
20260508133900 53 110 0.0 2.6 0.00 0.00 0.00 61
20260508133400 52 111 0.9 2.6 0.00 0.00 0.00 61
20260508132855 52 93 0.0 2.6 0.00 0.00 0.00 64
20260508132351 52 266 0.0 3.5 0.00 0.00 0.00 64
20260508131831 52 116 1.7 2.6 0.00 0.00 0.00 63
20260508131324 51 265 0.9 3.5 0.00 0.00 0.00 62
20260508130827 52 128 2.6 3.5 0.00 0.00 0.00 61
20260508130319 51 120 0.0 1.7 0.00 0.00 0.00 65
20260508130037 51 187 0.0 2.6 0.00 0.00 0.00 62
20260508125254 49 238 1.7 2.6 0.00 0.00 0.00 66
20260508124749 50 93 0.9 2.6 0.00 0.00 0.00 68
20260508124248 50 209 0.0 1.7 0.00 0.00 0.00 64
20260508123743 49 63 0.9 3.5 0.00 0.00 0.00 66
20260508123240 49 92 0.9 3.5 0.00 0.00 0.00 67
20260508122718 50 26 0.9 2.6 0.00 0.00 0.00 70
20260508122212 48 100 1.7 2.6 0.00 0.00 0.00 68
20260508121715 46 142 0.0 0.9 0.00 0.00 0.00 71
20260508121207 46 231 0.0 0.9 0.00 0.00 0.00 74
20260508120700 46 127 0.9 2.6 0.00 0.00 0.00 72
20260508120200 46 144 0.9 2.6 0.00 0.00 0.00 74
20260508115658 45 142 0.0 1.7 0.00 0.00 0.00 73
20260508115359 44 147 0.0 0.9 0.00 0.00 0.00 75
20260508114633 43 198 0.0 0.9 0.00 0.00 0.00 81
20260508114124 41 210 0.0 0.0 0.00 0.00 0.00 88
20260508113625 40 210 0.0 0.0 0.00 0.00 0.00 90
20260508113118 40 210 0.0 0.0 0.00 0.00 0.00 92
20260508112546 39 186 0.0 0.0 0.00 0.00 0.00 92
20260508112037 39 186 0.0 0.0 0.00 0.00 0.00 92
20260508111522 38 186 0.0 0.0 0.00 0.00 0.00 92
20260508111013 38 186 0.0 0.0 0.00 0.00 0.00 92
20260508110454 38 186 0.0 0.0 0.00 0.00 0.00 92
20260508105921 37 186 0.0 0.0 0.00 0.00 0.00 92
20260508105343 37 186 0.0 0.0 0.00 0.00 0.00 92
20260508104824 37 186 0.0 0.0 0.00 0.00 0.00 91
20260508104319 37 186 0.0 0.0 0.00 0.00 0.00 91
20260508103804 37 186 0.0 0.0 0.00 0.00 0.00 91
20260508103254 37 186 0.0 0.0 0.00 0.00 0.00 91
20260508102749 37 186 0.0 0.0 0.00 0.00 0.00 91
20260508102249 38 186 0.0 0.0 0.00 0.00 0.00 91
20260508101743 37 177 0.0 0.0 0.00 0.00 0.00 90
20260508101236 37 177 0.0 0.0 0.00 0.00 0.00 89
20260508100737 37 177 0.0 0.0 0.00 0.00 0.00 89
20260508100231 37 177 0.0 0.0 0.00 0.00 0.00 88
20260508100221 38 177 0.0 0.0 0.00 0.00 0.00 88
20260508095207 38 177 0.0 0.0 0.00 0.00 0.00 88
20260508094649 38 174 0.0 0.0 0.00 0.00 0.00 87
20260508094145 38 174 0.0 0.0 0.00 0.00 0.00 86
20260508093607 39 174 0.0 0.0 0.00 0.00 0.00 86
20260508093101 39 140 0.0 0.0 0.00 0.00 0.00 86
20260508092835 39 151 0.0 0.0 0.00 0.00 0.00 85
20260508092314 39 151 0.0 0.0 0.00 0.00 0.00 84
20260508091549 40 151 0.0 0.0 0.00 0.00 0.00 84
20260508091253 40 151 0.0 0.9 0.00 0.00 0.00 83
20260508090718 40 156 0.0 0.9 0.00 0.00 0.00 82
20260508085949 41 232 0.0 0.9 0.00 0.00 0.00 81
20260508085452 40 94 0.0 0.9 0.00 0.00 0.00 83
20260508084943 41 99 0.0 0.0 0.00 0.00 0.00 82
20260508084915 41 84 0.0 0.0 0.00 0.00 0.00 80
20260508083919 42 85 0.0 0.0 0.00 0.00 0.00 79
20260508083417 42 85 0.0 0.9 0.00 0.00 0.00 79
20260508082913 42 100 0.0 0.9 0.00 0.00 0.00 80
20260508082407 42 165 0.0 0.0 0.00 0.00 0.00 80
20260508082132 42 233 0.0 0.0 0.00 0.00 0.00 80
20260508081404 43 234 0.0 1.7 0.00 0.00 0.00 78
20260508080855 43 221 0.0 1.7 0.00 0.00 0.00 78
20260508080350 42 281 0.9 1.7 0.00 0.00 0.00 78
20260508075849 42 123 0.0 0.0 0.00 0.00 0.00 78
20260508075346 42 250 0.0 0.9 0.00 0.00 0.00 77
20260508074824 42 256 0.0 0.9 0.00 0.00 0.00 76
20260508074540 42 38 0.0 0.0 0.00 0.00 0.00 74
20260508074246 42 38 0.0 0.0 0.00 0.00 0.00 74
20260508073256 43 38 0.0 0.0 0.00 0.00 0.00 74
20260508072752 43 36 0.0 0.9 0.00 0.00 0.00 74
20260508072253 43 40 0.0 0.9 0.00 0.00 0.00 76
20260508071743 44 3 0.0 0.9 0.00 0.00 0.00 75
20260508071237 44 3 0.0 0.9 0.00 0.00 0.00 72
20260508070721 44 357 0.0 0.9 0.00 0.00 0.00 73
20260508070143 44 357 0.0 0.9 0.00 0.00 0.00 73
20260508065640 44 354 0.0 0.9 0.00 0.00 0.00 74
20260508065119 45 355 0.0 2.6 0.00 0.00 0.00 72
20260508064615 45 14 0.0 2.6 0.00 0.00 0.00 72
20260508064114 45 9 0.0 1.7 0.00 0.00 0.00 75
20260508063607 44 13 0.0 1.7 0.00 0.00 0.00 82
20260508063101 44 7 0.0 0.9 0.00 0.00 0.00 87
20260508063032 44 4 0.0 0.9 0.00 0.00 0.00 88
20260508062036 43 0 0.9 0.9 0.00 0.00 0.00 89
20260508061737 43 236 0.0 0.0 0.00 0.00 0.00 90
20260508060524 43 257 0.0 0.0 0.00 0.00 0.00 89
20260508060028 43 257 0.0 0.0 0.00 0.00 0.00 89
20260508055520 43 257 0.0 0.0 0.00 0.00 0.00 89
20260508055224 43 257 0.0 0.0 0.00 0.00 0.00 88
20260508054455 43 257 0.0 0.0 0.00 0.00 0.00 87
20260508054429 43 257 0.0 0.0 0.00 0.00 0.00 86
20260508053433 43 257 0.0 0.0 0.00 0.00 0.00 85
20260508053145 44 257 0.0 0.0 0.00 0.00 0.00 85
20260508052407 44 265 0.0 0.0 0.00 0.00 0.00 84
20260508051901 44 265 0.0 0.0 0.00 0.00 0.00 83
20260508051401 45 266 0.0 0.9 0.00 0.00 0.00 82
20260508050857 45 264 0.0 0.9 0.00 0.00 0.00 81
20260508050349 45 309 0.0 1.7 0.00 0.00 0.00 81
20260508045831 45 274 0.0 3.5 0.00 0.00 0.00 79
20260508045313 46 282 1.7 3.5 0.00 0.00 0.00 78
20260508045032 46 296 1.7 5.2 0.00 0.00 0.00 78
20260508044304 46 195 0.9 7.8 0.00 0.00 0.00 77
20260508044031 46 280 0.9 7.8 0.00 0.00 0.00 75
20260508043255 46 297 0.9 2.6 0.00 0.00 0.00 74
20260508042752 46 243 1.7 2.6 0.00 0.00 0.00 73
20260508042249 47 314 0.0 1.7 0.00 0.00 0.00 71
20260508042009 49 271 1.7 1.7 0.00 0.00 0.00 61
20260508041237 48 164 0.9 0.9 0.00 0.00 0.00 60
20260508040739 48 250 0.0 0.0 0.00 0.00 0.00 57
20260508040231 48 250 0.0 0.0 0.00 0.00 0.00 57
20260508035727 48 250 0.0 0.0 0.00 0.00 0.00 57
20260508035207 47 243 0.0 0.0 0.00 0.00 0.00 56
20260508034703 47 251 0.0 0.0 0.00 0.00 0.00 56
20260508034143 47 251 0.0 0.0 0.00 0.00 0.00 55
20260508033637 48 251 0.0 0.0 0.00 0.00 0.00 56
20260508033119 48 251 0.0 0.9 0.00 0.00 0.00 53
20260508032613 49 251 0.0 0.9 0.00 0.00 0.00 53
20260508032347 49 246 0.0 0.9 0.00 0.00 0.00 52
20260508032053 49 288 0.0 0.0 0.00 0.00 0.00 53
20260508031049 49 289 0.0 0.0 0.00 0.00 0.00 52
20260508031028 49 289 0.0 0.0 0.00 0.00 0.00 51
20260508030039 49 289 0.0 0.0 0.00 0.00 0.00 50
20260508025521 49 300 0.0 0.9 0.00 0.00 0.00 52
20260508025013 50 308 0.0 0.9 0.00 0.00 0.00 53
20260508024512 50 261 0.0 1.7 0.00 0.00 0.00 51
20260508024006 50 288 0.0 1.7 0.00 0.00 0.00 49
20260508023501 50 328 0.9 1.7 0.00 0.00 0.00 47
20260508023001 50 289 0.9 1.7 0.00 0.00 0.00 47
20260508022457 50 306 0.0 2.6 0.00 0.00 0.00 48
20260508021937 51 292 0.0 2.6 0.00 0.00 0.00 47
20260508021431 51 238 1.7 2.6 0.00 0.00 0.00 46
20260508020927 51 312 0.0 1.7 0.00 0.00 0.00 49
20260508020425 50 303 0.0 0.9 0.00 0.00 0.00 48
20260508020143 50 294 0.0 1.7 0.00 0.00 0.00 47
20260508015401 51 289 0.0 1.7 0.00 0.00 0.00 46
20260508014857 51 267 0.9 1.7 0.00 0.00 0.00 46
20260508014349 51 251 0.0 2.6 0.00 0.00 0.00 46
20260508013849 51 278 0.9 2.6 0.00 0.00 0.00 45
20260508013343 51 297 0.9 2.6 0.00 0.00 0.00 46
20260508013103 51 273 0.0 1.7 0.00 0.00 0.00 45
20260508012336 51 158 0.0 2.6 0.00 0.00 0.00 44
20260508011831 52 15 0.9 2.6 0.00 0.00 0.00 44
20260508011325 52 290 1.7 2.6 0.00 0.00 0.00 43
20260508010827 52 108 0.9 1.7 0.00 0.00 0.00 43
20260508010319 52 288 0.9 5.2 0.00 0.00 0.00 42
20260508005812 52 293 1.7 5.2 0.00 0.00 0.00 41
20260508005312 52 347 0.0 5.2 0.00 0.00 0.00 42
20260508005041 52 277 0.0 2.6 0.00 0.00 0.00 42
20260508004527 52 28 0.0 1.7 0.00 0.00 0.00 42
20260508003802 52 294 0.0 1.7 0.00 0.00 0.00 41
20260508003257 52 278 0.0 1.7 0.00 0.00 0.00 42
20260508003233 52 270 0.0 2.6 0.00 0.00 0.00 41
20260508002508 52 285 0.0 5.2 0.00 0.00 0.00 42
20260508001745 53 265 0.0 6.1 0.00 0.00 0.00 41
20260508001459 53 266 0.0 11.3 0.00 0.00 0.00 40